Simultaneous Nadir Overpasses (SNOs) Predictions

Prediction of SNOs between NOAA-20 and AQUA Satellite Orbit:

Table of predicted SNOs for the next 14.0 days since TLE Epoch: 5/3/2025
Index Date (NOAA-20) Time (NOAA-20) Lat,Lon (NOAA-20) SZA (NOAA-20 ) Date (AQUA) Time (AQUA) Lat,Lon (AQUA) SZA (AQUA ) Distance(km) Time Diff (sec)
1 05/03/2025 11:08:39 -81.30, 125.39 109.12 05/03/2025 11:09:46 -81.29, 125.22 109.14 2.97 67
2 05/03/2025 11:59:23 81.30, -67.05 70.84 05/03/2025 11:59:04 81.30, -67.03 70.85 0.52 19
3 05/05/2025 21:30:20 81.30, 150.50 70.11 05/05/2025 21:30:17 81.30, 150.33 70.14 2.90 3
4 05/08/2025 07:01:17 81.30, 7.61 69.48 05/08/2025 07:01:28 81.30, 7.56 69.48 0.78 11
5 05/08/2025 07:51:36 -81.11,-174.88 112.01 05/08/2025 07:50:32 -81.51,-179.08 111.22 83.41 64
6 05/10/2025 16:32:15 81.30,-135.35 68.88 05/10/2025 16:32:39 81.29,-135.34 68.86 0.88 24
7 05/10/2025 17:22:59 -81.30, 32.58 111.22 05/10/2025 17:21:57 -81.30, 32.49 111.17 1.50 62
8 05/13/2025 02:03:12 81.30, 82.04 68.26 05/13/2025 02:03:48 81.30, 82.02 68.24 0.51 36
9 05/13/2025 02:53:56 -81.30,-110.02 111.84 05/13/2025 02:53:06 -81.31,-110.13 111.79 2.10 50
10 05/15/2025 11:34:09 81.30, -60.63 67.69 05/15/2025 11:34:56 81.30, -60.75 67.67 2.08 47



Historial Predications of SNOs between NOAA-20 and AQUA
